TimeCST,TemperatureF,Dew PointF,Humidity,Sea Level PressureIn,VisibilityMPH,Wind Direction,Wind SpeedMPH,Gust SpeedMPH,PrecipitationIn,Events,Conditions,WindDirDegrees,DateUTC
12:15 AM,57.2,53.6,88,29.69,10.0,SSW,11.5,19.6,0.03,Rain,Rain,200,2012-11-11 06:15:00
12:35 AM,57.2,53.6,88,29.66,10.0,South,11.5,-,0.08,Rain,Rain,170,2012-11-11 06:35:00
12:55 AM,55.4,53.6,94,29.68,5.0,South,12.7,23.0,0.15,Rain,Rain,180,2012-11-11 06:55:00
1:15 AM,55.4,53.6,94,29.67,10.0,South,10.4,-,0.10,Rain,Heavy Rain,180,2012-11-11 07:15:00
1:35 AM,55.4,53.6,94,29.66,10.0,South,10.4,-,0.19,Rain,Heavy Rain,180,2012-11-11 07:35:00
1:55 AM,55.4,53.6,94,29.65,10.0,South,15.0,23.0,0.27,Rain,Rain,170,2012-11-11 07:55:00
2:15 AM,55.4,53.6,94,29.63,10.0,SSE,9.2,18.4,0.05,Rain,Light Rain,160,2012-11-11 08:15:00
2:35 AM,55.4,53.6,94,29.66,10.0,South,9.2,-,0.05,,Scattered Clouds,190,2012-11-11 08:35:00
2:55 AM,55.4,53.6,94,29.66,10.0,South,10.4,-,0.05,,Overcast,170,2012-11-11 08:55:00
3:15 AM,44.6,41.0,87,29.68,10.0,NW,10.4,20.7,0.02,Rain,Rain,320,2012-11-11 09:15:00
3:35 AM,42.8,37.4,81,29.71,7.0,North,10.4,16.1,0.11,Rain,Heavy Rain,350,2012-11-11 09:35:00
3:55 AM,39.2,35.6,87,29.73,10.0,NW,16.1,23.0,0.17,Rain,Rain,310,2012-11-11 09:55:00
4:15 AM,37.4,35.6,93,29.75,4.0,NW,13.8,25.3,0.07,Rain,Rain,310,2012-11-11 10:15:00
4:35 AM,35.6,33.8,93,29.76,7.0,NNW,13.8,23.0,0.14,Rain,Rain,330,2012-11-11 10:35:00
4:55 AM,35.6,32.0,87,29.72,5.0,NNW,17.3,-,0.18,Rain,Light Rain,340,2012-11-11 10:55:00
5:15 AM,35.6,32.0,87,29.70,10.0,North,15.0,-,N/A,,Mostly Cloudy,360,2012-11-11 11:15:00
5:35 AM,35.6,30.2,81,29.74,10.0,NNW,16.1,19.6,N/A,,Mostly Cloudy,340,2012-11-11 11:35:00
5:55 AM,33.8,30.2,87,29.80,10.0,NW,13.8,-,N/A,Rain,Light Rain,320,2012-11-11 11:55:00
6:15 AM,33.8,30.2,87,29.81,7.0,NW,13.8,-,0.01,Rain,Light Rain,320,2012-11-11 12:15:00
6:35 AM,33.8,28.4,81,29.81,7.0,NNW,12.7,17.3,0.02,Rain,Light Rain,330,2012-11-11 12:35:00
6:55 AM,32.0,28.4,87,29.80,7.0,North,11.5,-,0.03,Rain,Light Rain,350,2012-11-11 12:55:00
7:35 AM,30.2,28.4,93,29.80,5.0,NNW,10.4,24.2,0.01,,Overcast,340,2012-11-11 13:35:00
7:55 AM,30.2,28.4,93,29.82,4.0,North,11.5,-,0.01,,Overcast,350,2012-11-11 13:55:00
8:15 AM,30.2,26.6,86,29.85,7.0,North,12.7,-,N/A,,Overcast,350,2012-11-11 14:15:00
8:35 AM,30.2,26.6,86,29.87,10.0,NW,15.0,19.6,N/A,,Overcast,310,2012-11-11 14:35:00
9:35 AM,28.4,24.8,86,29.90,10.0,NW,15.0,18.4,N/A,,Overcast,310,2012-11-11 15:35:00
9:55 AM,28.4,24.8,86,29.89,7.0,NW,19.6,28.8,N/A,,Overcast,310,2012-11-11 15:55:00
10:15 AM,28.4,24.8,86,29.88,7.0,NW,13.8,23.0,N/A,,Overcast,320,2012-11-11 16:15:00
10:35 AM,28.4,24.8,86,29.91,7.0,NW,15.0,21.9,N/A,,Overcast,310,2012-11-11 16:35:00
10:55 AM,26.6,23.0,86,29.93,4.0,NNW,15.0,24.2,N/A,,Overcast,330,2012-11-11 16:55:00
11:15 AM,28.4,23.0,80,29.92,10.0,NW,15.0,21.9,N/A,,Overcast,320,2012-11-11 17:15:00
11:35 AM,28.4,21.2,74,29.93,10.0,NNW,11.5,21.9,N/A,,Overcast,330,2012-11-11 17:35:00
11:55 AM,28.4,21.2,74,29.93,10.0,NW,13.8,21.9,N/A,,Overcast,320,2012-11-11 17:55:00
12:15 PM,28.4,21.2,74,29.94,10.0,NW,10.4,20.7,N/A,,Overcast,320,2012-11-11 18:15:00
12:35 PM,26.6,21.2,80,29.93,10.0,NW,15.0,26.5,N/A,,Overcast,320,2012-11-11 18:35:00
12:55 PM,28.4,21.2,74,29.94,10.0,NW,15.0,20.7,N/A,,Overcast,310,2012-11-11 18:55:00
1:15 PM,28.4,19.4,69,29.94,10.0,NW,13.8,24.2,N/A,,Overcast,310,2012-11-11 19:15:00
1:35 PM,28.4,19.4,69,29.95,10.0,NNW,12.7,20.7,N/A,,Overcast,330,2012-11-11 19:35:00
1:55 PM,30.2,21.2,69,29.94,10.0,NNW,12.7,16.1,N/A,,Overcast,330,2012-11-11 19:55:00
2:15 PM,30.2,21.2,69,29.94,10.0,NW,12.7,20.7,N/A,,Overcast,310,2012-11-11 20:15:00
2:35 PM,32.0,19.4,60,29.96,10.0,NW,16.1,25.3,N/A,,Mostly Cloudy,310,2012-11-11 20:35:00
2:55 PM,30.2,19.4,64,29.96,10.0,NW,16.1,21.9,N/A,,Scattered Clouds,310,2012-11-11 20:55:00
3:15 PM,32.0,19.4,60,29.98,10.0,NW,17.3,21.9,N/A,,Clear,320,2012-11-11 21:15:00
3:35 PM,32.0,17.6,55,29.98,10.0,WNW,18.4,27.6,N/A,,Clear,300,2012-11-11 21:35:00
3:55 PM,30.2,15.8,55,29.99,10.0,NW,20.7,26.5,N/A,,Clear,310,2012-11-11 21:55:00
4:15 PM,30.2,15.8,55,30.01,10.0,NW,19.6,23.0,N/A,,Clear,310,2012-11-11 22:15:00
4:35 PM,30.2,15.8,55,30.01,10.0,NW,12.7,20.7,N/A,,Clear,320,2012-11-11 22:35:00
4:55 PM,30.2,15.8,55,30.03,10.0,NW,10.4,17.3,N/A,,Clear,320,2012-11-11 22:55:00
5:15 PM,28.4,17.6,64,30.04,10.0,WNW,9.2,-,N/A,,Clear,300,2012-11-11 23:15:00
5:35 PM,28.4,15.8,59,30.05,10.0,NW,8.1,-,N/A,,Clear,310,2012-11-11 23:35:00
5:55 PM,28.4,15.8,59,30.06,10.0,NW,6.9,-,N/A,,Clear,310,2012-11-11 23:55:00
6:15 PM,28.4,15.8,59,30.07,10.0,NW,5.8,-,N/A,,Clear,310,2012-11-12 00:15:00
6:35 PM,26.6,15.8,64,30.09,10.0,WNW,4.6,-,N/A,,Clear,300,2012-11-12 00:35:00
6:55 PM,26.6,17.6,69,30.10,10.0,West,4.6,-,N/A,,Clear,280,2012-11-12 00:55:00
7:15 PM,26.6,15.8,64,30.10,10.0,WNW,3.5,-,N/A,,Clear,290,2012-11-12 01:15:00
7:35 PM,24.8,15.8,69,30.11,10.0,West,5.8,-,N/A,,Clear,270,2012-11-12 01:35:00
7:55 PM,24.8,15.8,69,30.12,10.0,West,4.6,-,N/A,,Clear,280,2012-11-12 01:55:00
8:15 PM,26.6,15.8,64,30.12,10.0,WNW,6.9,-,N/A,,Clear,290,2012-11-12 02:15:00
8:35 PM,26.6,15.8,64,30.13,10.0,WNW,5.8,-,N/A,,Clear,290,2012-11-12 02:35:00
8:55 PM,24.8,15.8,69,30.13,10.0,West,4.6,-,N/A,,Clear,280,2012-11-12 02:55:00
9:15 PM,24.8,14.0,64,30.14,10.0,Calm,Calm,-,N/A,,Clear,0,2012-11-12 03:15:00
9:35 PM,23.0,14.0,68,30.15,10.0,Calm,Calm,-,N/A,,Clear,0,2012-11-12 03:35:00
9:55 PM,21.2,15.8,80,30.16,10.0,Calm,Calm,-,N/A,,Clear,0,2012-11-12 03:55:00
10:15 PM,21.2,15.8,80,30.17,10.0,Calm,Calm,-,N/A,,Clear,0,2012-11-12 04:15:00
10:35 PM,21.2,15.8,80,30.17,10.0,WSW,3.5,-,N/A,,Clear,240,2012-11-12 04:35:00
10:55 PM,21.2,14.0,74,30.17,10.0,WSW,3.5,-,N/A,,Clear,250,2012-11-12 04:55:00
11:15 PM,21.2,14.0,74,30.18,10.0,Calm,Calm,-,N/A,,Clear,0,2012-11-12 05:15:00
11:35 PM,21.2,14.0,74,30.17,10.0,Calm,Calm,-,N/A,,Clear,0,2012-11-12 05:35:00
11:55 PM,21.2,14.0,74,30.17,10.0,Calm,Calm,-,N/A,,Clear,0,2012-11-12 05:55:00